Tracking 25953 objects as of 15-Aug-2022
HD Live streaming from Space Station
objects crossing your sky now

DIDO 3

Track DIDO 3 now!
10-day predictions


NORAD ID: 46284
Int'l Code: 2020-061N
Perigee: 531.1 km
Apogee: 537.7 km
Inclination: 97.4 °
Period: 95.2 minutes
Semi major axis: 6905 km
RCS: Unknown
Launch date: September 3, 2020
Source: Israel (ISRA)
Launch site: FRENCH GUIANA (FRGUI)
aabbcc
Your satellite tracking list
Your tracking list is empty




NASA's NSSDC Master Catalog

Two Line Element Set (TLE):
1 46284U 20061N   22227.19782235  .00003650  00000-0  21076-3 0  9998
2 46284  97.4422 295.3762 0004716  67.7356 292.4375 15.12934439107304
Source of the keplerian elements: AFSPC